Showing default

EXPLORER 16, 506

Orbit data source: Space-Track

EXPLORER 16, 506 is a payload satellite owned by NASA LaRC (US) in LEO that was launched on Sun, 16 Dec 1962 UTC via an SCOUT X-3 launch vehicle from the Wallops Island (WLPIS). Payload-class satellites include a variety of spacecraft equipped with specific instruments for various scientific and technological missions. These include communications satellites like Starlink; space stations such as the ISS; scientific satellites like the Hubble; Earth observation satellites from companies like Planet Labs, Umbra, and HawkEye 360; GPS; miniature CubeSats for education and research; and military/defense satellites.

Loading next visibility...
Identifier
506, 1962-070A
Orbit
LEO
Country
Flag of USUS
Related business
Manufacturer
NASA LaRC
Mission
Spacecraft
Bus & Motor
S-55, Unknown motor
Mass
100 kg wet, 76 kg dry
Launch date (UTC)
1962-12-16 (63 years ago)
Launch vehicle
SCOUT X-3
Launch site
Wallops Island (WLPIS)
Object type
Payload
Rocket body
Debris
Shape & HBR
Unknown
Radar Cross Section
Medium (>0.1 m² and <1 m²)

Expand to show TLE details & history
Last TLE update: 5 hours ago

TLE from 5 hours ago
0 EXPLORER 16
1   506U 62070A   25297.81888525  .00000181  00000-0  21274-3 0  9995
2   506  52.0012 238.1637 0276653  38.5867 323.4478 13.85725282176120
Epoch: 2025-10-24T19:39Z
TLE epoch observation values (Epoch: 2025-10-24T19:39:11.685Z)
Latitude
-0.00001°
Longitude
-90.09332°
Altitude
783.713 km
Speed
7.544 km/s
True Right ascension
15h 52m 39s
True Declination
0° 00' 00"
Sunlit
Object was in daylight at epoch
Visualization orbit readout
Latitude
Unknown
Longitude
Unknown
Altitude
Unknown
Speed
Unknown
Apparent Right ascension
Unknown
Apparent Declination
Unknown
Sunlit
N/A
Visualization observer readout
Local Sidereal Time
19:49:17
Azimuth
Unknown
Elevation
Unknown
Doppler factor
Unknown
Orbital elements
Apogee altitude
1,146.638 km
Perigee altitude
741.496 km
Semi-major axis
7,322.204 km
Eccentricity
0.02767
Inclination
52.0012°
RAAN
238.1637°
Arg. of periapsis
38.5867°
True anomaly
321.50625°
Mean anomaly
323.4478°
Eccentric anomaly
322.48246°
Mean motion
3.46402 °/min
Orbital period
103.93 mins
BSTAR
0.00021274
Loading maneuver chart data...
Computing Atmospheric mass density...
Loading historical data...
Loading historical data...
Loading historical data...
Loading historical data...
Loading historical data...
Loading historical data...
Loading historical data...
Other satellites on launch #70 in the year 1962 (1962-12-16 UTC)

Documentation

Showing up to 5 results
|